Regional Weather Roundup
Issued by NWS Upton, NY

Home | Current Version | Previous Version | Text Only | Print | Product List | Glossary On
Versions: 1 2 3 4 5 6 7 8 9 10 11 12 13 14 15 16 17 18 19 20 21 22 23 24 25 26 27 28 29 30 31 32 33 34 35 36 37 38 39 40 41 42 43 44 45 46 47 48 49 50
000
ASUS41 KOKX 181408
RWROKX

REGIONAL WEATHER ROUNDUP
NATIONAL WEATHER SERVICE NEW YORK NY
1000 AM EDT FRI AUG 18 2017

NOTE: "FAIR" INDICATES FEW OR NO CLOUDS BELOW 12,000 FEET WITH NO
SIGNIFICANT WEATHER AND/OR OBSTRUCTIONS TO VISIBILITY.

NYZ071-072-176-178-NJZ106-104-181500-
NEW YORK CITY METRO AREA

CITY           SKY/WX    TMP DP  RH WIND       PRES   REMARKS
Central Park   CLOUDY    74  73  97 CALM      29.91S FOG
Bronx Bot Gard   N/A     73  73 100 E1        29.90R
LaGuardia APRT CLOUDY    75  74  96 VRB3      29.87R
Kennedy INTL   NOT AVBL
Breezy Point     N/A     73 N/A N/A SW7         N/A
Newark/Liberty LGT RAIN  75  73  93 CALM      29.88R FOG
Teterboro      NOT AVBL
$$

NYZ177-179-078>081-181500-
LONG ISLAND NEW YORK

CITY           SKY/WX    TMP DP  RH WIND       PRES   REMARKS
Jones Beach      N/A     75 N/A N/A S14G21      N/A
Matinecock PT    N/A     73 N/A N/A SW6         N/A
Farmingdale    NOT AVBL
MacArthur/ISP  CLOUDY    76  74  93 S9        29.90S
Shirley        NOT AVBL
Mt Sinai Harb    N/A    N/A N/A N/A S6          N/A
Westhampton    NOT AVBL
East Hampton   CLOUDY    74  71  90 S10G17    29.92F
Montauk        NOT AVBL
$$

NYZ052-065-067-181500-
HUDSON VALLEY

CITY           SKY/WX    TMP DP  RH WIND       PRES   REMARKS
White Plains   NOT AVBL
Larchmont Harb   N/A     73 N/A N/A MISG        N/A
Croton On Huds   N/A     73 N/A N/A S3          N/A
Newburgh       NOT AVBL
Montgomery     NOT AVBL
Poughkeepsie   NOT AVBL
Albany         NOT AVBL
$$

NJZ001-105-106-008-010-013-015-019>022-104-181500-
NEW JERSEY

CITY           SKY/WX    TMP DP  RH WIND       PRES   REMARKS
Newark/Liberty LGT RAIN  75  73  93 CALM      29.88R FOG
Teterboro      NOT AVBL
Caldwell       NOT AVBL
Somerville     NOT AVBL
Linden         DRIZZLE   74  71  91 CALM      29.88S
Perth Amboy      N/A     75 N/A N/A SW6         N/A
Sussex         CLOUDY    74  72  93 CALM      29.87F
Andover        NOT AVBL
Trenton        NOT AVBL
Millville      NOT AVBL
Atlantic City  PTSUNNY   82  76  81 S13       29.89S
Wrightstown    PTSUNNY   75  73  94 S8        29.86R
Toms River     LGT RAIN  75  75 100 SW6       29.91S FOG
Belmar         NOT AVBL
$$

PAZ047>061-062-071-181500-
EASTERN PENNSYLVANIA

CITY           SKY/WX    TMP DP  RH WIND       PRES   REMARKS
Philadelphia   NOT AVBL
Allentown      CLOUDY    76  71  85 SW3       29.87S
Scranton       NOT AVBL
$$

CTZ002-004>006-009-010-012-RIZ004-006-007-MAZ004-011-015-181500-
SOUTHERN NEW ENGLAND
 IN CT

CITY           SKY/WX    TMP DP  RH WIND       PRES   REMARKS
Bradley INTL   NOT AVBL
Hartford       NOT AVBL
Danbury        NOT AVBL
Wtrbury/Oxford NOT AVBL
Norwalk Harbor   N/A     73 N/A N/A SE6         N/A
Bridgeport     NOT AVBL
Meriden        NOT AVBL
New Haven      NOT AVBL
Chester        NOT AVBL
Groton         NOT AVBL
Wilimantic     NOT AVBL

 IN RI

CITY           SKY/WX    TMP DP  RH WIND       PRES   REMARKS
Providence     NOT AVBL
Block Island   NOT AVBL
Westerly       NOT AVBL
 IN MA

CITY           SKY/WX    TMP DP  RH WIND       PRES   REMARKS
Boston         NOT AVBL
Worcester      NOT AVBL
Westfield      NOT AVBL
Provincetown   NOT AVBL
Nantucket      NOT AVBL
$$

ANZ330-335-338-340-345-350-353-355-181500-
COASTAL MARINE OBSERVATIONS


STATION/POSITION TIME  SKY/WX   TEMP    WIND        PRES    VSBY  WAVE
                                AIR SEA DIR/SP/G                  HT/PER
                 (UTC)          (F)     (DEG/KT/KT) (MB)    (MI)  (FT/S)
NY HARB ENTRANCE 1250            76 75  190/ 16/ 17 1011.1          3/ 5
GREAT SOUTH BAY  1245            75 78  170/ 12/ 14   N/A
23 SSW MONTAUK P 1250            73 71              1013.9          3/ 7
15 E BARNEGAT LI 1330               76                N/A           4/ 5
HUDSON CANYON    1250            76 75  170/ 14/ 17 1013.2          3/ 7
KINGS POINT      1312            73 74  120/  4/  5 1011.5
EXECUTION ROCKS  NOT AVBL
WESTERN LI SOUND NOT AVBL
CENTRAL LI SOUND NOT AVBL
EASTERN LI SOUND NOT AVBL
ROBBINS REEF     1306                   290/  2/  2 1012.3
$$


>>>>>>>>>>>>>>>>>>>>>>>>>>>> KEY <<<<<<<<<<<<<<<<<<<<<<<<<<<
>                                                          <
>     SKY/WX - Sky Condition/Present Weather               <
>     TMP    - Temperature in Fahrenheit                   <
>     DP     - Dew Point in Fahrenheit                     <
>     RH     - Relative Humidity in Percent                <
>     WIND   - Direction (from) and Speed in MPH           <
>     PRES   - Mean Sea Level Pressure (inches of Hg)      <
>     WCI    - Wind Chill Index                            <
>     VSB    - VISIBILITY IN MILES                         <
>     HX     - HEAT INDEX                                  <
>     TC     - TEMPERATURE IN CELSIUS                      <
>     VRB    - VARIABLE WIND DIRECTION                     <
>                                                          <
>>>>>>>>>>>>>>>>>>>>>>>>>>>> KEY <<<<<<<<<<<<<<<<<<<<<<<<<<<



USA.gov is the U.S. government's official web portal to all federal, state and local government web resources and services.